Погода в Исфахане

Иран     32°39′38″N   51°40′38″E
темп.,
°C
ветер,
м/с
пор.,
м/с
влажн.,
%
обл.,
%
осадки,
мм/ч
давл.,
гПа
погр.,
м
24 сентября, пт
пт2400:30+24зсз11110 0.0 100713
03:30+22ссз22130 0.0 100712
06:30+22ююз11130 0.0 100920
09:30+28ююв22100 0.0 1010726
12:30+32ююв3470 0.0 10072220
15:30+33в1360 0.0 10053196
18:30+29вюв5790 0.0 1006211
21:30+27з2390 0.0 100853
25 сентября, сб
сб2500:30+24сз22110 0.0 101048
03:30+22сз22130 0.0 101118
06:30+22зсз34140 0.0 101377
09:30+27з33110 0.0 1013741
12:30+30зюз2380 0.0 10091606
15:30+32ю3460 0.0 10072234
18:30+29всв2280 0.0 100623
21:30+26зсз59130 0.0 1009240
26 сентября, вс
вс2600:30+24зсз46140 0.0 1009199
03:30+22з23180 0.0 100989
06:30+21зсз33180 0.0 101185
09:30+26зсз22140 0.0 1011703
12:30+29юз12100 0.0 10081510
15:30+31зсз1270 0.0 10061709
18:30+27ссв57100 0.0 1007219
21:30+24св711151 0.0 1010248
27 сентября, пн
пн2700:30+22сз33160 0.0 101184
03:30+20сз33170 0.0 101155
06:30+19с12180 0.0 101249
09:30+24св11130 0.0 1012510
12:30+29юв34110 0.0 10081429
15:30+31вюв3390 0.0 10051976
18:30+28вюв45120 0.0 1006220
21:30+24ююв24230 0.0 1008150
28 сентября, вт
вт2800:30+22юв12270 0.0 100970
03:30+20всв11300 0.0 100950
06:30+20юв00300 0.0 101045
09:30+25вюв22220 0.0 1010624
12:30+30ююв22130 0.0 10071300
15:30+32вюв3490 0.0 10041735
18:30+28вюв12110 0.0 100529
21:30+26з12120 0.0 100733